Location: *
(14.6440°N, 134.5660°E)
Time: 12:29:44
(UTC+00:00)

Daily predictions for brighter satellites

Satellite Brightness Start Highest point End
(mag) Time Altitude Azimuth Time Altitude Azimuth Time Altitude Azimuth
Hubble Space Telescope 3.4 12:02:48 10° NW 12:04:19 17° NNW 12:04:19 17° NNW
Resurs 01 Rocket 4.4 12:23:59 13° W 12:23:59 13° W 12:25:34 10° WNW
CZ-3C R/B 4.5 13:17:39 10° W 13:18:46 13° W 13:18:46 13° W
ATLAS 3B CENTAUR R/B 4.4 13:33:50 10° W 13:45:10 40° WNW 13:45:10 40° WNW
Ariane H10+ 4.5 17:02:59 51° SE 17:02:59 51° SE 17:26:09 10° E
SL-16 R/B 4.2 17:45:48 23° NNW 17:45:48 23° NNW 17:47:57 10° NNW
Cosmos 1697 Rocket 3.6 17:59:12 42° E 17:59:12 42° E 18:04:20 10° NE
Maqsat-H 4.2 18:04:28 18° SE 18:04:28 18° SE 18:05:29 10° SE
Cosmos 2369 4.0 18:11:49 61° N 18:11:49 61° N 18:16:28 10° NNE
USA 81 4.3 18:13:24 65° NE 18:13:24 65° NE 18:18:07 10° N
Cosmos 1605 Rocket 4.1 18:09:13 10° N 18:14:20 62° NW 18:14:20 62° NW
Cosmos 540 Rocket 3.9 18:10:29 10° N 18:15:29 57° ENE 18:15:47 56° E
ADEOS II 2.9 18:17:22 10° N 18:21:02 40° NNW 18:21:02 40° NNW
Centaur AC-42 2.1 18:24:28 57° ENE 18:24:28 57° ENE 18:28:26 10° ENE
Cosmos 2219 4.0 18:18:40 10° N 18:24:04 48° ENE 18:29:27 10° SSE
Cosmos 1980 Rocket 3.3 18:22:47 29° SE 18:24:40 37° ESE 18:29:46 10° NE
Lacrosse 5 rocket 3.5 18:26:35 19° ESE 18:26:54 20° ESE 18:30:02 10° ENE
ATLAS 2A CENTAUR R/B 3.7 18:22:16 29° WNW 18:27:13 46° NNW 18:32:52 10° NE
Cosmos 1153 Rocket 4.4 18:28:21 10° N 18:34:38 79° W 18:36:34 48° S
PSLV R/B 3.5 18:33:39 10° NNE 18:37:48 81° NNE 18:37:48 81° NNE
Cosmos 2278 4.0 18:39:09 47° WNW 18:39:09 47° WNW 18:44:22 10° N
Cosmos 2123 Rocket 4.4 18:35:31 23° SSE 18:39:28 61° E 18:45:33 10° NNE
Cosmos 836 Rocket 4.4 18:41:07 10° NNW 18:46:25 87° ENE 18:50:42 16° SSE
ASC 2 Rocket 4.0 18:44:43 32° WNW 18:47:28 78° NNE 18:55:31 10° ESE
Cosmos 1782 Rocket 4.0 18:48:40 34° SSE 18:50:24 60° E 18:54:44 10° NNE
GPS 2-12 Rocket1 3.2 18:50:11 56° WNW 18:50:58 67° NNW 18:55:42 10° ENE
Cosmos 1777 Rocket 3.9 18:50:49 55° SW 18:51:52 70° WNW 18:57:03 10° N
Cosmos 2297 Rocket 4.1 18:48:36 10° NNE 18:53:26 29° ENE 18:58:14 10° SE
COSMOS 2455 2.7 18:47:26 10° NNW 18:53:26 77° WSW 18:59:24 10° SSE
Cosmos 1602 3.6 18:56:13 70° WNW 18:56:13 70° WNW 18:59:58 10° N
ARIANE 44L R/B 4.4 18:56:39 13° SE 18:56:39 13° SE 18:58:00 10° SE
ATLAS 3B CENTAUR R/B 2.8 18:59:24 15° NNE 18:59:24 15° NNE 19:00:37 10° ENE
Cosmos 2227 Rocket 3.5 18:56:17 10° N 19:01:34 40° ENE 19:06:51 10° SE
Delta 168 3.6 19:01:37 36° S 19:02:24 40° SSE 19:07:24 10° E
USA 267 3.7 18:58:23 10° NE 19:04:44 54° SE 19:09:30 18° SSW
Cosmos 1378 Rocket 4.0 19:00:53 10° N 19:05:16 61° E 19:09:38 10° SSE
IDEFIX/ARIANE 42P 4.1 19:02:55 10° NE 19:07:35 33° E 19:12:13 10° SSE
CZ-4B DEB 4.5 19:02:31 10° NNE 19:07:56 68° ESE 19:13:07 12° S
CZ-4B R/B 3.1 19:04:57 10° N 19:09:06 57° WNW 19:10:24 39° SW
Okean 3 3.4 19:06:25 10° NNW 19:10:32 59° W 19:12:18 32° SSW
CZ-3 R/B 3.2 18:52:41 26° WSW 19:10:36 89° SSE 19:18:04 10° ENE
Delta 198 3.4 19:11:36 41° S 19:11:36 41° S 19:14:47 10° SE
CZ-4B R/B 4.2 19:07:51 10° NNE 19:11:50 62° E 19:14:36 18° S
Cosmos 2173 Rocket 3.9 19:05:50 10° N 19:11:51 68° W 19:17:55 10° S
SL-16 Debris 4.3 19:05:25 10° WNW 19:12:09 55° NNE 19:14:51 10° E
ATLAS 5 CENTAUR R/B 3.5 18:58:55 10° W 19:13:10 29° SW 19:18:04 10° SSE
Cosmos 1908 Rocket 4.5 19:13:23 30° W 19:13:27 30° W 19:17:21 10° NNW
Iridium 96 4.2 19:12:00 10° N 19:14:47 59° E 19:15:43 33° SSE
Meteor 1-18 Rocket 4.1 19:14:19 10° NNW 19:19:51 68° W 19:25:20 10° S
Cosmos 1674 Rocket 4.1 19:19:42 10° NNW 19:23:38 36° W 19:25:18 26° SW
BREEZE-M DEB (TANK) 4.2 19:25:22 14° NW 19:25:22 14° NW 19:26:35 10° NNW
GPS 2-14 Rocket1 3.7 19:23:15 13° WNW 19:26:39 45° N 19:30:37 10° E
Atlas Centaur 2 1.8 19:26:55 25° W 19:29:16 61° NNW 19:34:20 10° NE
PAYLOAD B 4.2 19:25:42 10° N 19:31:08 67° WNW 19:36:35 10° SSW
FUSE 3.9 19:29:08 22° WSW 19:32:34 78° SSE 19:37:56 10° ENE
Cosmos 2322 Rocket 3.2 19:27:45 10° S 19:33:06 44° ESE 19:38:25 10° NNE
Cosmos 2082 4.2 19:29:35 10° N 19:35:08 63° ENE 19:40:40 10° SSE
Genesis I 3.3 19:31:56 10° NNW 19:35:57 83° ENE 19:39:53 10° SSE
Cosmos 1536 2.8 19:35:09 10° S 19:39:10 69° W 19:43:12 10° N
Okean 1 3.9 19:36:11 10° NNW 19:39:48 35° W 19:43:25 10° SSW
Cosmos 2016 Rocket 4.1 19:33:51 10° NNW 19:40:01 56° W 19:46:08 10° SSW
SL-08 R/B 4.5 19:34:23 10° N 19:40:31 69° W 19:46:46 10° S
SEDSat Delta rocket 3.8 19:37:30 10° NW 19:41:36 52° NNE 19:46:08 10° ESE
Meteor 1-11 Rocket 3.9 19:36:51 10° SSW 19:42:10 50° W 19:47:30 10° N
Cosmos 1975 Rocket 3.3 19:37:52 10° N 19:42:20 77° E 19:46:48 10° S
Cosmos 1802 Rocket 4.4 19:36:42 10° NNW 19:42:24 41° W 19:48:05 10° SSW
Cosmos 1697 Rocket 4.4 19:40:59 12° W 19:42:57 15° WNW 19:46:00 10° NW
Meteor 1-19 Rocket 4.2 19:37:28 10° N 19:42:59 89° ESE 19:48:31 10° S
Cosmos 2061 Rocket 4.5 19:39:11 10° NNW 19:44:56 40° W 19:50:45 10° SSW
USA 229 DEB 3.9 19:38:26 10° NW 19:45:40 61° WSW 19:52:59 10° S
NOSS 3-3 (A) 3.8 19:39:55 10° SSW 19:45:45 88° WNW 19:51:50 10° NNE
USA 229 3.9 19:38:32 10° NW 19:45:47 61° WSW 19:53:07 10° S
NOSS 3-3 (C) 3.8 19:40:03 10° SSW 19:45:54 89° WNW 19:51:59 10° NNE
Cosmos 1340 Rocket 3.0 19:42:00 10° N 19:45:54 74° E 19:49:47 10° S
Ariane H10 3.9 19:46:08 10° S 19:47:15 12° SSE 19:48:46 10° SE
Okean O Rocket 2.2 19:43:47 10° N 19:47:54 38° WNW 19:52:00 10° SW
SL-16 R/B 2.2 19:55:01 10° SSW 20:00:40 85° WNW 20:06:21 10° NNE
SPELTRA 4.2 19:59:12 10° SW 20:01:37 16° S 20:04:05 10° SE
Okean 2 Rocket 4.1 19:58:50 10° SW 20:02:28 26° W 20:06:08 10° NNW
IRS-1C Rocket 4.2 19:57:54 10° N 20:03:03 58° WNW 20:08:12 10° SSW
Lacrosse 5 rocket 2.9 20:02:28 10° WSW 20:05:54 23° NW 20:09:27 10° N
Cosmos 2360 Rocket 3.9 20:00:56 10° SSE 20:05:54 33° ESE 20:10:52 10° NE
USA 161 -0.1 20:05:54 10° S 20:07:28 65° W 20:09:09 10° NNW
Cosmos 1980 Rocket 3.8 20:05:13 10° WSW 20:08:33 16° WNW 20:11:54 10° NNW
Cosmos 1725 Rocket 4.5 20:05:25 10° NNW 20:11:12 39° W 20:16:57 10° SSW
